Regional Weather Roundup
Issued by NWS

Home | Current Version | Previous Version | Graphics & Text | Print | Product List | Glossary On
Versions: 1 2 3 4 5 6 7 8 9 10 11 12 13 14 15 16 17 18 19 20 21 22 23 24 25 26 27 28 29 30 31 32 33 34 35 36 37 38 39 40 41 42 43 44 45 46 47 48 49 50
000
ASUS43 KOAX 041702
RWRNE

WEATHER ROUNDUP FOR NEBRASKA
NATIONAL WEATHER SERVICE OMAHA NE
1200 PM CDT SAT JUL 04 2015

NOTES: SATELLITE DATA IS BEING USED TO AUGMENT CLOUD COVER ABOVE
       12000 FEET.
       "FAIR" INDICATES FEW OR NO CLOUDS BELOW 12,000 FEET WITH NO
       SIGNIFICANT WEATHER AND/OR OBSTRUCTIONS TO VISIBILITY.

  * THESE STATIONS DO NOT REPORT WEATHER SUCH AS RAIN...SNOW OR FOG.

NEZ001>004-019>022-054>056-041800-
NEBRASKA PANHANDLE

CITY           SKY/WX    TMP DP  RH WIND       PRES   REMARKS
SCOTTSBLUFF    SUNNY     81  64  56 SE9G16    29.92F
ALLIANCE       SUNNY     80  65  59 S15       29.92F
CHADRON        SUNNY     82  63  52 VRB3      29.87F
KIMBALL          N/A    N/A N/A N/A MISG        N/A
SIDNEY         SUNNY     83  60  45 S10       29.97F
$$

NEZ057>060-069>072-079>082-041800-
SOUTHWEST NEBRASKA

CITY           SKY/WX    TMP DP  RH WIND       PRES   REMARKS
NORTH PLATTE   SUNNY     83  63  50 SE9       29.93F
IMPERIAL       SUNNY     85  61  44 SE15      29.94F
LEXINGTON      SUNNY     82  66  58 S15       29.96F
MCCOOK         MOSUNNY   86  62  44 S15       29.94F
$$

NEZ005>010-023>029-035>040-094-041800-
NORTH CENTRAL NEBRASKA

CITY           SKY/WX    TMP DP  RH WIND       PRES   REMARKS
VALENTINE      SUNNY     83  64  52 S18       29.89F
AINSWORTH      SUNNY     82  64  54 S17       29.92S
BROKEN BOW     SUNNY     81  64  56 S15G22    29.95F
ORD            MOSUNNY   79  64  60 S15       29.95S
$$

NEZ041-046>049-061>064-073>077-083>087-041800-
SOUTH CENTRAL NEBRASKA

CITY           SKY/WX    TMP DP  RH WIND       PRES   REMARKS
GRAND ISLAND   PTSUNNY   77  64  64 S12       29.99S
AURORA         PTSUNNY   77  67  72 S9        29.99S
HASTINGS       PTSUNNY   78  66  66 S9        29.99S
KEARNEY *      MOSUNNY   79  66  65 S13G20    29.98S
$$

NEZ011>018-030>034-042>045-041800-
NORTHEAST NEBRASKA

CITY           SKY/WX    TMP DP  RH WIND       PRES   REMARKS
NORFOLK        PTSUNNY   78  65  63 SE14      29.97F
BLAIR          SUNNY     77  59  54 SE7       30.01R
COLUMBUS *     PTSUNNY   75  63  64 SE7       30.00S
FREMONT        MOSUNNY   77  61  57 SE9       30.00S
TEKAMAH        MOSUNNY   79  62  56 SE10      29.99S
$$

NEZ050>053-065>068-078-088>093-041800-
SOUTHEAST NEBRASKA

CITY           SKY/WX    TMP DP  RH WIND       PRES   REMARKS
LINCOLN        PTSUNNY   77  61  57 S8        30.00S
OMAHA EPPLEY   PTSUNNY   78  59  51 SE8       30.00S
FALLS CITY     SUNNY     78  60  53 SE9       30.01F
PLATTSMOUTH    SUNNY     77  58  53 SE8       30.02R
$$

NEZ044-045-051>053-067-041800-
OMAHA AREA

CITY           SKY/WX    TMP DP  RH WIND       PRES   REMARKS
OMAHA EPPLEY   PTSUNNY   78  59  51 SE8       30.00S
BLAIR          SUNNY     77  59  54 SE7       30.01R
FREMONT        MOSUNNY   77  61  57 SE9       30.00S
MILLARD        SUNNY     77  61  56 S7        30.00S
OFFUTT AFB     SUNNY     77  62  60 S6        30.00S
PLATTSMOUTH    SUNNY     77  58  53 SE8       30.02R
$$


USA.gov is the U.S. government's official web portal to all federal, state and local government web resources and services.